User: anonymous   Login
Location: Unspecified
(0.0000°N, 0.0000°E)
Time: 07:47:44
(UTC+00:00)
Language:

CP-7 DAVE - Orbit

View from above orbital plane
View from above orbital plane
View from above satellite
View from above satellite

Ground track
Ground track

The orbit data is extracted from the following two-line orbital elements,

1 43615U 18070C   20224.11587733  .00002530  00000-0  64904-4 0  9997
2 43615  93.0243 177.1805 0017799 119.9968 240.3056 15.39258789106887
Epoch (UTC): 11 August 2020 02:46:51
Eccentricity: 0.0017799
inclination: 93.0243°
perigee height: 436 km
apogee height: 460 km
right ascension of ascending node: 177.1805°
argument of perigee: 119.9968°
revolutions per day: 15.39258789
mean anomaly at epoch: 240.3056°
orbit number at epoch: 10688

The dashed part of the orbit path shows where the satellite is in the earth's shadow,  

DLR